Location: Demmingen
(48.6757°N, 10.4375°E)
Time: 10:37:58
(UTC+00:00)

USA 267 - Pass Details

Date: 14 August 2024
Orbit: 1096 x 1111 km, 123.1° (Epoch: 03 September)

Event Time Altitude Azimuth Distance (km) Brightness Sun altitude
Rises 20:06:44 0° 189° (S) 3,903 5.8 -13.8°
Reaches altitude 10° 20:11:01 10° 216° (SW) 2,955 5.5 -14.3°
Maximum altitude 20:13:42 13° 241° (WSW) 2,758 5.6 -14.7°
Drops below altitude 10° 20:16:24 10° 266° (W) 2,967 6.1 -15.0°
Sets 20:20:44 0° 293° (WNW) 3,934 7.5 -15.5°
